This is the latest recevied weather packets stored in our database for station/object KC0OOO-WX. If no packets are shown the sender has not sent any weather packets the latest 10 day(s).
| Time | Temp. | Humidity | Pressure | Rain* | Wind** | Luminosity | Snow |
|---|---|---|---|---|---|---|---|
| 1777400012 | 12.78° C | 28% | 1021.3 hPa | 0 mm | - | - | - |
| 1777399412 | 12.22° C | 28% | 1021.3 hPa | 0 mm | - | - | - |
| 1777398812 | 11.67° C | 31% | 1021.3 hPa | 0 mm | - | - | - |
| 1777398212 | 11.11° C | 32% | 1021.7 hPa | 0 mm | - | - | - |
| 1777397612 | 11.11° C | 29% | 1021.7 hPa | 0 mm | - | - | - |
| 1777397012 | 10.56° C | 30% | 1021.7 hPa | 0 mm | - | - | - |
| 1777396382 | 10.56° C | 31% | 1021.7 hPa | 0 mm | - | - | - |
| 1777395782 | 10.56° C | 31% | 1021.7 hPa | 0 mm | - | - | - |
| 1777395182 | 10.56° C | 37% | 1021.7 hPa | 0 mm | - | - | - |
| 1777394582 | 10° C | 34% | 1021.7 hPa | 0 mm | - | - | - |
| 1777393982 | 10° C | 38% | 1021.7 hPa | 0 mm | - | - | - |
| 1777393382 | 8.89° C | 41% | 1021.7 hPa | 0 mm | - | - | - |
| 1777392752 | 8.33° C | 37% | 1021.7 hPa | 0 mm | - | - | - |
| 1777392152 | 7.78° C | 39% | 1021.6 hPa | 0 mm | - | - | - |
| 1777391551 | 7.22° C | 36% | 1021.3 hPa | 0 mm | - | - | - |
| 1777390952 | 6.11° C | 37% | 1021.3 hPa | 0 mm | - | - | - |
| 1777390351 | 6.11° C | 39% | 1021.3 hPa | 0 mm | - | - | - |
| 1777389751 | 6.11° C | 42% | 1021.3 hPa | 0 mm | - | - | - |
| 1777389152 | 5.56° C | 48% | 1021.3 hPa | 0 mm | - | - | - |
| 1777388551 | 5° C | 49% | 1021.3 hPa | 0 mm | - | - | - |
| 1777387922 | 4.44° C | 47% | 1021.3 hPa | 0 mm | - | - | - |
| 1777387292 | 3.89° C | 53% | 1021 hPa | 0 mm | - | - | - |
| 1777386661 | 3.33° C | 61% | 1020.7 hPa | 0 mm | - | - | - |
| 1777386062 | 2.78° C | 66% | 1020.7 hPa | 0 mm | - | - | - |
| 1777385462 | 2.22° C | 69% | 1020.3 hPa | 0 mm | - | - | - |
* Rain latest hour (hover to see other rain measurements)
** Current wind speed in m/s (hover to see current wind gust speed)